{"data":{"norad_id":65554,"intl_designator":"2025-201E","name":"GEESAT-5 05","alt_names":[],"object_type":"PAYLOAD","status":"ACTIVE","operator":null,"country":"PRC","launch_date":"2025-09-08","launch_site_code":"YSLA","launch_vehicle":null,"mission":null,"orbit_class":"UNKNOWN","rcs_meters":null,"size_class":null,"mass_kg":null,"dimensions":null,"purposes":[],"wikipedia_slug":null,"has_3d_model":false,"image_url":null,"decayed_at":null,"tle_current":{"epoch":"2026-09-19T11:54:54.871488Z","epoch_age_seconds":239322,"freshness":"STALE","line1":"1 65554U 25201E   26262.49646842  .00000883  00000+0  13100-3 0  9992","line2":"2 65554  49.9827 321.4949 0011015 281.2189  78.7511 14.84362028 55802","mean_motion":14.84362028,"eccentricity":0.0011015,"inclination_deg":49.9827,"raan_deg":321.4949,"arg_perigee_deg":281.2189,"mean_anomaly_deg":78.7511,"bstar":0.000131,"rev_number":5580,"period_min":97.011374101251,"perigee_km":607.88547209698,"apogee_km":623.29265061014,"semimajor_km":6993.7260613536,"source":"CELESTRAK","updated_at":"2026-09-21T09:00:15.425300Z"}}}